period_start,C,m1,H,J0,J1,J2,J3,J4,J5,JA,JB,JC,JD,JJ,JK,JN,#
2016-07-27 00:01:28,0.01,0.42,0.00,26.02,29.72,32.55,14.35,47.61,1016.00,2027.99,3273.96,2951.46,3342.96,600.07,589.77,43.25,0000 0000 0000 0000 000000
2016-07-27 00:06:29,0.01,0.42,0.00,26.02,29.72,32.52,14.33,47.68,1015.96,2027.99,3273.77,2951.24,3342.91,599.89,589.40,43.30,0000 0000 0000 0000 000000
2016-07-27 00:11:30,-0.00,0.42,0.00,26.02,29.72,32.55,14.34,47.75,1016.08,2027.99,3273.96,2951.34,3342.82,600.13,589.92,43.35,0000 0000 0000 0000 000000
2016-07-27 00:16:32,0.00,0.42,0.00,26.02,29.72,32.51,14.34,47.81,1016.09,2027.97,3273.97,2951.29,3342.75,599.98,589.61,43.40,0000 0000 0000 0000 000000
2016-07-27 00:21:33,0.01,0.42,0.00,26.02,29.72,32.55,14.33,47.87,1016.02,2027.97,3273.86,2951.13,3342.45,599.96,589.60,43.45,0000 0000 0000 0000 000000
2016-07-27 00:26:34,0.00,0.42,0.00,26.02,29.71,32.48,14.29,47.79,1015.87,2027.98,3273.72,2951.12,3342.38,599.96,589.54,43.50,0000 0000 0000 0000 000000
2016-07-27 00:31:35,-0.01,0.42,0.00,26.02,29.70,32.50,14.33,47.92,1015.76,2027.98,3273.81,2951.18,3342.50,599.79,589.24,43.55,0000 0000 0000 0000 000000
2016-07-27 00:36:37,0.00,0.42,0.00,26.01,29.70,32.52,14.41,47.91,1015.68,2027.99,3273.82,2951.23,3342.59,600.40,589.93,43.60,0000 0000 0000 0000 000000
2016-07-27 00:41:38,0.01,0.42,0.00,26.02,29.70,32.51,14.40,47.83,1015.65,2027.97,3273.65,2951.10,3342.27,600.61,590.07,43.65,0000 0000 0000 0000 000000
2016-07-27 00:46:39,0.01,0.42,0.00,26.00,29.70,32.50,14.30,47.67,1015.68,2027.96,3273.37,2951.04,3342.09,599.88,589.55,43.70,0000 0000 0000 0000 000000
2016-07-27 00:51:41,0.01,0.42,0.00,26.00,29.68,32.46,14.34,47.68,1015.85,2027.96,3273.14,2951.01,3342.01,600.02,589.64,43.75,0000 0000 0000 0000 000000
2016-07-27 00:56:42,0.00,0.42,0.00,26.00,29.67,32.47,14.33,47.88,1016.01,2027.98,3273.04,2951.01,3342.02,600.04,589.78,43.80,0000 0000 0000 0000 000000
2016-07-27 01:01:43,0.00,0.42,0.00,26.00,29.67,32.46,14.31,47.84,1016.07,2027.97,3273.03,2951.01,3342.01,599.88,589.67,43.85,0000 0000 0000 0000 000000
2016-07-27 01:06:45,-0.00,0.42,0.00,26.01,29.67,32.41,14.35,47.72,1016.13,2027.96,3273.01,2951.00,3342.00,600.03,589.68,43.90,0000 0000 0000 0000 000000
2016-07-27 01:11:46,0.00,0.42,0.00,26.02,29.67,32.43,14.31,47.67,1016.13,2027.95,3273.00,2951.00,3342.00,599.90,589.59,43.96,0000 0000 0000 0000 000000
2016-07-27 01:16:47,0.04,0.42,0.00,26.01,29.67,32.46,14.32,47.98,1016.13,2027.96,3272.55,2950.72,3341.62,599.92,589.67,44.01,0000 0000 0000 0000 000000
2016-07-27 01:21:48,0.01,0.43,0.00,26.01,29.66,32.42,14.40,47.89,1016.13,2027.96,3272.01,2950.09,3341.07,600.26,590.04,44.06,0000 0000 0000 0000 000000
2016-07-27 01:26:50,0.00,0.43,0.00,26.01,29.65,32.42,14.32,47.88,1016.13,2027.98,3272.00,2950.07,3341.04,599.80,589.56,44.11,0000 0000 0000 0000 000000
2016-07-27 01:31:51,0.00,0.43,0.00,26.01,29.65,32.38,14.28,47.84,1016.13,2027.99,3271.99,2950.03,3341.02,599.37,589.34,44.16,0000 0000 0000 0000 000000
2016-07-27 01:36:52,-0.01,0.43,0.00,26.01,29.65,32.39,14.29,47.66,1016.13,2027.99,3271.98,2950.24,3341.06,600.08,589.78,44.21,0000 0000 0000 0000 000000
2016-07-27 01:41:54,0.01,0.43,0.00,26.01,29.65,32.33,14.31,47.73,1016.13,2027.99,3271.98,2950.13,3341.02,599.83,589.70,44.26,0000 0000 0000 0000 000000
2016-07-27 01:46:55,0.00,0.43,0.00,26.01,29.65,32.36,14.35,47.78,1016.13,2027.99,3271.94,2950.04,3341.01,600.36,590.17,44.31,0000 0000 0000 0000 000000
2016-07-27 01:51:56,0.00,0.43,0.00,26.00,29.65,32.39,14.29,47.68,1016.13,2027.99,3271.76,2950.02,3341.00,599.89,589.68,44.36,0000 0000 0000 0000 000000
2016-07-27 01:56:57,0.00,0.43,0.00,26.01,29.65,32.40,14.38,47.75,1016.13,2027.99,3271.71,2950.00,3341.00,599.83,589.59,44.41,0000 0000 0000 0000 000000
2016-07-27 02:01:58,0.01,0.43,0.00,26.01,29.65,32.39,14.33,47.58,1016.14,2027.99,3271.35,2950.00,3341.00,599.90,589.70,44.46,0000 0000 0000 0000 000000
2016-07-27 02:07:00,0.00,0.43,0.00,26.02,29.65,32.42,14.28,47.77,1016.13,2027.99,3271.16,2950.00,3341.00,599.97,589.71,44.51,0000 0000 0000 0000 000000
2016-07-27 02:12:00,0.00,0.43,0.00,26.02,29.65,32.39,14.30,47.89,1016.13,2027.99,3271.06,2950.00,3340.99,600.09,589.90,44.56,0000 0000 0000 0000 000000
2016-07-27 02:17:02,0.00,0.43,0.00,26.02,29.65,32.39,14.37,47.85,1016.14,2027.99,3271.02,2950.00,3340.98,600.21,589.93,44.61,0000 0000 0000 0000 000000
2016-07-27 02:22:03,0.00,0.43,0.00,26.02,29.65,32.43,14.33,47.83,1016.13,2027.99,3271.00,2949.99,3340.94,600.03,589.68,44.66,0000 0000 0000 0000 000000
2016-07-27 02:27:04,0.00,0.43,0.00,26.02,29.65,32.41,14.40,47.77,1016.13,2027.99,3271.00,2949.99,3340.88,600.33,590.06,44.71,0000 0000 0000 0000 000000
2016-07-27 02:32:06,0.01,0.43,0.00,26.02,29.65,32.44,14.31,47.79,1016.13,2027.99,3270.99,2949.97,3340.46,600.04,589.74,44.76,0000 0000 0000 0000 000000
2016-07-27 02:37:07,0.00,0.43,0.00,26.02,29.65,32.38,14.33,47.79,1016.14,2027.99,3270.93,2949.94,3340.26,600.09,589.87,44.81,0000 0000 0000 0000 000000
2016-07-27 02:42:08,0.00,0.43,0.00,26.02,29.66,32.38,14.34,47.88,1016.14,2027.99,3270.81,2949.94,3340.18,600.10,589.86,44.86,0000 0000 0000 0000 000000
2016-07-27 02:47:10,0.01,0.43,0.00,26.03,29.66,32.34,14.24,47.72,1016.14,2028.00,3270.15,2949.84,3340.08,599.89,589.61,44.91,0000 0000 0000 0000 000000
2016-07-27 02:52:10,0.01,0.43,0.00,26.04,29.66,32.35,14.29,47.57,1016.14,2028.00,3270.02,2949.49,3340.00,600.26,589.95,44.97,0000 0000 0000 0000 000000
2016-07-27 02:57:12,0.01,0.43,0.00,26.04,29.66,32.41,14.34,47.60,1016.14,2028.00,3270.00,2949.11,3340.00,599.95,589.67,45.02,0000 0000 0000 0000 000000
2016-07-27 03:02:13,0.00,0.43,0.00,26.04,29.65,32.38,14.28,47.51,1016.14,2028.00,3269.99,2949.03,3339.99,599.74,589.50,45.07,0000 0000 0000 0000 000000
2016-07-27 03:07:14,0.00,0.43,0.00,26.05,29.65,32.37,14.37,47.67,1016.14,2028.00,3269.93,2949.00,3339.92,600.10,589.75,45.12,0000 0000 0000 0000 000000
2016-07-27 03:12:15,0.02,0.43,0.00,26.05,29.65,32.42,14.28,47.64,1016.14,2028.00,3269.51,2948.97,3339.15,599.78,589.49,45.17,0000 0000 0000 0000 000000
2016-07-27 03:17:16,0.03,0.43,0.00,26.06,29.65,32.40,14.32,47.53,1016.14,2028.00,3269.01,2948.29,3338.94,599.91,589.54,45.22,0000 0000 0000 0000 000000
2016-07-27 03:22:17,0.00,0.44,0.00,26.07,29.66,32.41,14.36,47.58,1016.14,2028.00,3268.99,2948.01,3338.62,600.16,589.80,45.27,0000 0000 0000 0000 000000
2016-07-27 03:27:19,0.01,0.44,0.00,26.06,29.66,32.36,14.30,47.73,1016.15,2028.00,3268.95,2948.00,3338.15,599.91,589.58,45.32,0000 0000 0000 0000 000000
2016-07-27 03:32:20,0.01,0.44,0.00,26.06,29.67,32.43,14.31,47.65,1016.17,2027.99,3268.58,2947.99,3338.01,600.00,589.58,45.37,0000 0000 0000 0000 000000
2016-07-27 03:37:21,0.02,0.44,0.00,26.07,29.67,32.43,14.33,47.68,1016.20,2027.99,3268.02,2947.71,3338.00,600.26,589.70,45.42,0000 0000 0000 0000 000000
2016-07-27 03:42:23,0.01,0.44,0.00,26.08,29.67,32.42,14.31,47.65,1016.24,2027.99,3267.89,2947.11,3337.94,599.78,589.47,45.47,0000 0000 0000 0000 000000
2016-07-27 03:47:24,0.01,0.44,0.00,26.07,29.67,32.40,14.31,47.54,1016.42,2028.00,3267.53,2947.02,3337.79,599.66,589.55,45.52,0000 0000 0000 0000 000000
2016-07-27 03:52:26,0.00,0.44,0.00,26.08,29.68,32.43,14.24,47.48,1016.58,2028.00,3267.36,2947.00,3337.57,599.58,589.43,45.57,0000 0000 0000 0000 000000
2016-07-27 03:57:27,0.01,0.44,0.00,26.08,29.69,32.39,14.34,47.56,1016.61,2028.00,3267.24,2947.00,3337.20,600.29,590.17,45.62,0000 0000 0000 0000 000000
2016-07-27 04:02:28,0.00,0.44,0.00,26.08,29.70,32.35,14.34,47.67,1016.57,2028.00,3267.04,2947.00,3337.02,599.98,589.90,45.67,0000 0000 0000 0000 000000
2016-07-27 04:07:30,0.00,0.44,0.00,26.08,29.70,32.41,14.35,47.63,1016.51,2028.00,3267.00,2946.95,3337.00,600.04,589.81,45.72,0000 0000 0000 0000 000000
2016-07-27 04:12:31,0.05,0.44,0.00,26.08,29.70,32.41,14.35,47.58,1016.62,2028.00,3266.16,2946.09,3336.18,600.03,589.92,45.77,0000 0000 0000 0000 000000
2016-07-27 04:17:32,0.01,0.44,0.00,26.09,29.70,32.41,14.34,47.63,1016.62,2027.99,3265.66,2945.71,3335.91,600.21,590.08,45.82,0000 0000 0000 0000 000000
2016-07-27 04:22:33,-0.00,0.44,0.00,26.11,29.70,32.38,14.37,47.69,1016.62,2027.99,3265.62,2945.77,3335.93,600.62,590.47,45.87,0000 0000 0000 0000 000000
2016-07-27 04:27:34,0.03,0.44,0.00,26.10,29.70,32.44,14.33,47.58,1016.62,2027.99,3265.19,2945.33,3335.53,600.20,590.10,45.93,0000 0000 0000 0000 000000
2016-07-27 04:32:36,0.01,0.44,0.00,26.10,29.70,32.49,14.32,47.56,1016.62,2027.99,3265.01,2945.13,3335.23,600.02,589.80,45.98,0000 0000 0000 0000 000000
2016-07-27 04:37:37,0.00,0.45,0.00,26.10,29.70,32.42,14.35,47.65,1016.62,2027.99,3265.00,2945.05,3335.08,600.13,589.92,46.03,0000 0000 0000 0000 000000
2016-07-27 04:42:38,0.00,0.45,0.00,26.10,29.70,32.44,14.27,47.57,1016.62,2027.99,3264.98,2945.00,3335.01,599.85,589.64,46.08,0000 0000 0000 0000 000000
2016-07-27 04:47:39,0.01,0.45,0.00,26.12,29.71,32.45,14.32,47.58,1016.63,2027.99,3264.58,2945.00,3335.00,600.22,590.08,46.13,0000 0000 0000 0000 000000
2016-07-27 04:52:41,0.00,0.45,0.00,26.12,29.72,32.42,14.37,47.65,1016.64,2027.99,3264.42,2944.99,3334.98,599.88,589.66,46.18,0000 0000 0000 0000 000000
2016-07-27 04:57:42,0.00,0.45,0.00,26.12,29.72,32.41,14.28,47.47,1016.66,2027.99,3264.06,2944.97,3334.89,599.81,589.60,46.23,0000 0000 0000 0000 000000
2016-07-27 05:02:42,0.01,0.45,0.00,26.12,29.72,32.45,14.32,47.66,1016.72,2027.99,3264.00,2944.89,3334.58,599.99,589.87,46.28,0000 0000 0000 0000 000000
2016-07-27 05:07:44,0.02,0.45,0.00,26.14,29.72,32.44,14.40,47.70,1016.86,2027.99,3264.00,2944.50,3334.18,600.20,590.19,46.33,0000 0000 0000 0000 000000
2016-07-27 05:12:45,0.00,0.45,0.00,26.14,29.72,32.44,14.22,47.54,1016.88,2027.99,3263.97,2944.11,3334.02,599.44,589.42,46.38,0000 0000 0000 0000 000000
2016-07-27 05:17:46,0.00,0.45,0.00,26.13,29.72,32.46,14.24,47.52,1016.83,2027.99,3263.91,2944.02,3334.00,599.90,589.89,46.43,0000 0000 0000 0000 000000
2016-07-27 05:22:48,0.04,0.45,0.00,26.13,29.74,32.49,14.30,47.55,1016.85,2027.98,3263.47,2943.72,3333.60,599.44,589.37,46.48,0000 0000 0000 0000 000000
2016-07-27 05:27:49,0.02,0.45,0.00,26.15,29.75,32.48,14.29,47.68,1016.95,2027.96,3262.76,2943.02,3332.89,599.94,589.80,46.53,0000 0000 0000 0000 000000
2016-07-27 05:32:50,0.02,0.45,0.00,26.15,29.75,32.48,14.33,47.80,1017.05,2027.97,3262.07,2943.00,3332.30,600.23,590.39,46.58,0000 0000 0000 0000 000000
2016-07-27 05:37:51,0.00,0.45,0.00,26.15,29.75,32.50,14.33,47.55,1017.08,2027.96,3262.00,2942.97,3332.02,599.86,589.82,46.63,0000 0000 0000 0000 000000
2016-07-27 05:42:53,0.00,0.45,0.00,26.16,29.75,32.48,14.36,47.60,1017.08,2027.97,3261.97,2942.91,3332.03,600.27,590.27,46.68,0000 0000 0000 0000 000000
2016-07-27 05:47:54,0.04,0.46,0.00,26.16,29.75,32.55,14.29,47.77,1017.09,2027.98,3261.25,2942.08,3331.89,599.92,589.78,46.73,0000 0000 0000 0000 000000
2016-07-27 05:52:55,0.00,0.46,0.00,26.17,29.76,32.50,14.24,47.56,1017.10,2027.98,3261.03,2942.00,3331.47,599.50,589.53,46.78,0000 0000 0000 0000 000000
2016-07-27 05:57:56,0.00,0.46,0.00,26.17,29.77,32.44,14.29,47.65,1017.10,2027.97,3260.99,2942.00,3331.07,599.93,589.79,46.83,0000 0000 0000 0000 000000
2016-07-27 06:02:58,-0.01,0.46,0.00,26.16,29.77,32.43,14.30,47.62,1017.10,2027.88,3260.95,2941.96,3331.00,600.06,590.06,46.89,0000 0000 0000 0000 000000
2016-07-27 06:07:59,0.01,0.46,0.00,26.16,29.77,32.53,14.28,47.62,1017.11,2027.90,3260.87,2941.92,3331.00,599.71,589.70,46.94,0000 0000 0000 0000 000000
2016-07-27 06:13:00,0.01,0.46,0.00,26.17,29.77,32.52,14.27,47.61,1017.12,2027.80,3260.50,2941.57,3330.96,600.03,590.01,46.99,0000 0000 0000 0000 000000
2016-07-27 06:18:01,0.01,0.46,0.00,26.15,29.77,32.49,14.32,47.47,1017.12,2027.84,3260.51,2941.57,3330.97,599.85,589.76,47.04,0000 0000 0000 0000 000000
2016-07-27 06:23:02,-0.00,0.46,0.00,26.17,29.77,32.50,14.28,47.60,1017.12,2027.67,3260.18,2941.21,3330.89,599.91,589.88,47.09,0000 0000 0000 0000 000000
2016-07-27 06:28:03,-0.02,0.46,0.00,26.17,29.77,32.54,14.23,47.52,1017.12,2027.41,3260.03,2941.08,3330.41,599.83,589.97,47.14,0000 0000 0000 0000 000000
2016-07-27 06:33:05,0.03,0.46,0.00,26.18,29.79,32.54,14.30,47.56,1017.12,2027.53,3260.02,2941.03,3330.18,599.80,589.78,47.19,0000 0000 0000 0000 000000
2016-07-27 06:38:06,-0.00,0.46,0.00,26.18,29.80,32.57,14.42,47.69,1017.12,2027.57,3260.00,2941.01,3330.08,599.91,589.75,47.24,0000 0000 0000 0000 000000
2016-07-27 06:43:07,-0.03,0.46,0.00,26.19,29.80,32.56,14.38,47.77,1017.13,2027.27,3259.99,2941.00,3330.00,600.20,590.13,47.29,0000 0000 0000 0000 000000
2016-07-27 06:48:09,-0.00,0.46,0.00,26.19,29.80,32.60,14.22,47.58,1017.12,2027.14,3259.98,2940.99,3329.99,599.44,589.49,47.34,0000 0000 0000 0000 000000
2016-07-27 06:53:10,0.00,0.46,0.00,26.17,29.80,32.55,14.36,47.67,1017.12,2027.15,3259.90,2940.98,3329.99,600.28,590.27,47.39,0000 0000 0000 0000 000000
2016-07-27 06:58:11,0.00,0.46,0.00,26.19,29.81,32.60,14.30,47.73,1017.21,2027.06,3259.64,2940.93,3329.98,600.13,590.16,47.44,0000 0000 0000 0000 000000
2016-07-27 07:03:12,0.01,0.46,0.00,26.19,29.82,32.56,14.35,47.75,1017.23,2027.03,3259.15,2940.72,3329.79,600.39,590.42,47.49,0000 0000 0000 0000 000000
2016-07-27 07:08:14,0.01,0.46,0.00,26.19,29.82,32.58,14.26,47.58,1017.25,2027.03,3259.02,2940.34,3329.36,599.70,589.71,47.54,0000 0000 0000 0000 000000
2016-07-27 07:13:15,0.00,0.46,0.00,26.20,29.82,32.57,14.37,47.76,1017.19,2027.01,3259.01,2940.13,3329.11,599.87,589.88,47.59,0000 0000 0000 0000 000000
2016-07-27 07:18:16,0.00,0.46,0.00,26.20,29.82,32.58,14.37,47.92,1017.36,2027.02,3259.00,2940.06,3329.07,600.40,590.50,47.64,0000 0000 0000 0000 000000
2016-07-27 07:23:17,0.00,0.46,0.00,26.21,29.83,32.59,14.32,47.87,1017.44,2027.01,3259.00,2940.03,3329.01,600.07,590.13,47.69,0000 0000 0000 0000 000000
2016-07-27 07:28:18,0.00,0.46,0.00,26.21,29.85,32.59,14.32,47.59,1017.52,2027.00,3258.96,2940.00,3329.00,599.83,589.91,47.74,0000 0000 0000 0000 000000
2016-07-27 07:33:19,0.00,0.46,0.00,26.21,29.85,32.57,14.33,47.74,1017.54,2027.00,3258.95,2940.00,3329.00,599.87,590.05,47.79,0000 0000 0000 0000 000000
2016-07-27 07:38:21,0.00,0.46,0.00,26.20,29.85,32.59,14.27,47.67,1017.54,2027.00,3258.87,2940.00,3329.00,599.73,589.86,47.84,0000 0000 0000 0000 000000
2016-07-27 07:43:22,0.00,0.46,0.00,26.21,29.85,32.62,14.39,47.69,1017.57,2027.00,3258.80,2940.00,3329.00,599.84,590.09,47.90,0000 0000 0000 0000 000000
2016-07-27 07:48:23,0.01,0.46,0.00,26.22,29.85,32.58,14.28,47.58,1017.59,2027.01,3258.24,2940.00,3328.97,600.06,590.25,47.95,0000 0000 0000 0000 000000
2016-07-27 07:53:24,0.00,0.46,0.00,26.22,29.87,32.57,14.28,47.63,1017.59,2027.02,3258.00,2939.98,3328.90,599.63,589.82,48.00,0000 0000 0000 0000 000000
2016-07-27 07:58:25,0.01,0.46,0.00,26.21,29.87,32.59,14.27,47.74,1017.59,2027.02,3257.94,2939.86,3328.55,599.46,589.69,48.05,0000 0000 0000 0000 000000
2016-07-27 08:03:27,0.03,0.46,0.00,26.22,29.87,32.61,14.38,47.83,1017.59,2027.05,3257.42,2939.33,3328.07,599.84,590.10,48.10,0000 0000 0000 0000 000000
2016-07-27 08:08:28,0.01,0.46,0.00,26.23,29.87,32.63,14.35,47.63,1017.59,2027.04,3257.08,2939.10,3328.02,600.16,590.25,48.15,0000 0000 0000 0000 000000
2016-07-27 08:13:30,0.00,0.46,0.00,26.22,29.87,32.59,14.37,47.81,1017.60,2027.05,3257.00,2939.08,3327.99,600.35,590.65,48.20,0000 0000 0000 0000 000000
2016-07-27 08:18:31,0.09,0.47,0.00,26.23,29.87,32.60,14.36,47.63,1017.59,2027.08,3255.98,2937.99,3326.46,599.94,590.13,48.25,0000 0000 0000 0000 000000
2016-07-27 08:23:32,0.01,0.47,0.00,26.24,29.87,32.63,14.34,47.67,1017.60,2027.03,3255.24,2937.21,3326.00,600.04,590.20,48.30,0000 0000 0000 0000 000000
2016-07-27 08:28:34,0.01,0.47,0.00,26.24,29.87,32.61,14.36,47.77,1017.60,2027.03,3255.00,2937.05,3325.92,600.16,590.33,48.35,0000 0000 0000 0000 000000
2016-07-27 08:33:35,0.06,0.47,0.00,26.24,29.87,32.62,14.34,47.88,1017.61,2027.04,3254.10,2936.15,3325.04,600.15,590.30,48.40,0000 0000 0000 0000 000000
2016-07-27 08:38:37,0.00,0.47,0.00,26.24,29.87,32.64,14.32,47.60,1017.61,2027.05,3254.00,2936.02,3324.96,599.64,589.75,48.45,0000 0000 0000 0000 000000
2016-07-27 08:43:38,-0.00,0.47,0.00,26.24,29.87,32.56,14.37,47.67,1017.61,2027.06,3254.00,2936.04,3324.97,600.08,590.24,48.50,0000 0000 0000 0000 000000
2016-07-27 08:48:39,0.00,0.47,0.00,26.23,29.87,32.61,14.32,47.71,1017.62,2027.09,3254.00,2936.04,3324.95,599.82,590.05,48.55,0000 0000 0000 0000 000000
2016-07-27 08:53:40,0.00,0.47,0.00,26.23,29.87,32.63,14.33,47.63,1017.63,2027.11,3254.00,2936.02,3324.94,600.08,590.33,48.60,0000 0000 0000 0000 000000
2016-07-27 08:58:41,0.00,0.47,0.00,26.22,29.87,32.58,14.42,47.61,1017.74,2027.06,3254.00,2936.03,3324.86,599.96,590.26,48.65,0000 0000 0000 0000 000000
2016-07-27 09:03:43,0.01,0.47,0.00,26.22,29.87,32.58,14.34,47.56,1017.76,2027.11,3253.99,2936.01,3324.68,600.07,590.39,48.70,0000 0000 0000 0000 000000
2016-07-27 09:08:45,0.00,0.47,0.00,26.23,29.87,32.59,14.37,47.80,1017.90,2027.15,3253.99,2936.01,3324.56,599.97,590.34,48.75,0000 0000 0000 0000 000000
2016-07-27 09:13:46,-0.00,0.47,0.00,26.22,29.86,32.55,14.35,47.61,1017.97,2027.13,3253.99,2936.00,3324.53,600.24,590.60,48.80,0000 0000 0000 0000 000000
2016-07-27 09:18:47,0.00,0.47,0.00,26.23,29.86,32.59,14.36,47.82,1018.05,2027.09,3253.98,2936.00,3324.22,599.85,590.29,48.86,0000 0000 0000 0000 000000
2016-07-27 09:23:48,0.00,0.47,0.00,26.25,29.86,32.62,14.27,47.40,1018.04,2027.14,3253.98,2936.00,3324.20,599.93,590.36,48.91,0000 0000 0000 0000 000000
2016-07-27 09:28:50,-0.01,0.47,0.00,26.23,29.85,32.60,14.29,47.54,1018.07,2027.09,3253.99,2936.00,3324.16,599.87,590.38,48.96,0000 0000 0000 0000 000000
2016-07-27 09:33:51,0.00,0.47,0.00,26.23,29.86,32.58,14.32,47.55,1018.08,2027.08,3253.98,2936.00,3324.10,599.53,589.79,49.01,0000 0000 0000 0000 000000
2016-07-27 09:38:51,0.00,0.47,0.00,26.23,29.86,32.63,14.37,47.61,1018.08,2027.06,3253.97,2936.00,3324.06,600.29,590.73,49.06,0000 0000 0000 0000 000000
2016-07-27 09:43:53,0.00,0.47,0.00,26.22,29.85,32.62,14.29,47.73,1018.09,2027.06,3253.96,2936.00,3324.03,599.70,590.19,49.11,0000 0000 0000 0000 000000
2016-07-27 09:48:54,0.00,0.47,0.00,26.23,29.85,32.60,14.38,47.66,1018.09,2027.12,3253.95,2936.00,3324.02,600.06,590.57,49.16,0000 0000 0000 0000 000000
2016-07-27 09:53:55,-0.01,0.47,0.00,26.22,29.85,32.66,14.34,47.45,1018.09,2027.05,3253.94,2936.00,3324.02,599.89,590.29,49.21,0000 0000 0000 0000 000000
2016-07-27 09:58:57,0.00,0.47,0.00,26.21,29.85,32.59,14.29,47.45,1018.11,2027.05,3253.78,2935.99,3324.00,599.57,590.13,49.26,0000 0000 0000 0000 000000
2016-07-27 10:03:58,0.00,0.47,0.00,26.22,29.85,32.64,14.31,47.57,1018.12,2027.03,3253.80,2935.98,3324.00,599.84,590.45,49.31,0000 0000 0000 0000 000000
2016-07-27 10:09:00,0.00,0.47,0.00,26.22,29.85,32.64,14.40,47.56,1018.11,2027.05,3253.67,2935.99,3324.00,600.64,590.89,49.36,0000 0000 0000 0000 000000
2016-07-27 10:14:01,0.01,0.47,0.00,26.22,29.85,32.60,14.32,47.56,1018.14,2027.07,3253.36,2935.99,3324.00,599.87,590.20,49.41,0000 0000 0000 0000 000000
2016-07-27 10:19:02,0.00,0.47,0.00,26.22,29.85,32.62,14.31,47.51,1018.12,2027.05,3253.17,2935.99,3324.00,600.00,590.53,49.46,0000 0000 0000 0000 000000
2016-07-27 10:24:03,0.00,0.47,0.00,26.19,29.85,32.61,14.31,47.49,1018.11,2027.10,3253.21,2935.99,3324.00,599.68,590.25,49.51,0000 0000 0000 0000 000000
2016-07-27 10:29:05,0.00,0.47,0.00,26.19,29.85,32.62,14.34,47.63,1018.17,2027.16,3253.05,2935.99,3324.00,600.04,590.63,49.56,0000 0000 0000 0000 000000
2016-07-27 10:34:06,0.01,0.47,0.00,26.19,29.85,32.61,14.38,47.61,1018.21,2027.26,3252.90,2935.80,3323.82,600.13,590.70,49.61,0000 0000 0000 0000 000000
2016-07-27 10:39:07,0.13,0.48,0.00,26.19,29.85,32.68,14.37,47.58,1018.17,2027.16,3251.16,2933.84,3321.41,599.90,590.49,49.66,0000 0000 0000 0000 000000
2016-07-27 10:44:08,0.03,0.48,0.00,26.19,29.85,32.63,14.34,47.56,1018.17,2027.17,3250.13,2933.03,3320.92,599.93,590.50,49.71,0000 0000 0000 0000 000000
2016-07-27 10:49:09,0.01,0.48,0.00,26.19,29.85,32.66,14.35,47.61,1018.11,2027.18,3250.00,2932.97,3320.52,599.81,590.49,49.76,0000 0000 0000 0000 000000
2016-07-27 10:54:10,0.00,0.48,0.00,26.17,29.85,32.60,14.33,47.60,1018.10,2027.26,3250.00,2932.98,3320.48,599.92,590.61,49.81,0000 0000 0000 0000 000000
2016-07-27 10:59:11,0.03,0.48,0.00,26.17,29.85,32.62,14.32,47.53,1018.08,2027.47,3250.00,2932.98,3320.39,599.90,590.34,49.86,0000 0000 0000 0000 000000
2016-07-27 11:04:12,0.02,0.48,0.00,26.16,29.84,32.65,14.37,47.56,1018.08,2027.64,3250.00,2932.96,3320.25,600.25,590.84,49.92,0000 0000 0000 0000 000000
2016-07-27 11:09:13,0.01,0.49,0.00,26.17,29.83,32.63,14.39,47.63,1018.09,2027.71,3250.00,2932.97,3320.22,600.18,590.83,49.97,0000 0000 0000 0000 000000
2016-07-27 11:14:14,-0.02,0.48,0.00,26.15,29.82,32.67,14.31,47.61,1018.09,2027.57,3249.98,2932.94,3320.08,600.01,590.65,50.02,0000 0000 0000 0000 000000
2016-07-27 11:19:16,0.02,0.49,0.00,26.16,29.82,32.65,14.35,47.73,1018.08,2027.49,3249.87,2932.31,3320.01,600.04,590.58,50.07,0000 0000 0000 0000 000000
2016-07-27 11:24:18,0.01,0.49,0.00,26.16,29.82,32.67,14.32,47.67,1018.09,2027.63,3249.83,2932.27,3320.00,599.87,590.56,50.12,0000 0000 0000 0000 000000
2016-07-27 11:29:19,0.02,0.49,0.00,26.14,29.82,32.62,14.37,47.71,1018.08,2027.87,3249.91,2932.50,3320.00,600.02,590.65,50.17,0000 0000 0000 0000 000000
2016-07-27 11:34:20,-0.01,0.49,0.00,26.14,29.82,32.65,14.31,47.60,1018.08,2027.79,3249.79,2932.39,3320.00,599.96,590.50,50.22,0000 0000 0000 0000 000000
2016-07-27 11:39:21,-0.01,0.49,0.00,26.14,29.80,32.68,14.44,47.73,1018.08,2027.66,3249.79,2932.24,3320.00,599.82,590.62,50.27,0000 0000 0000 0000 000000
2016-07-27 11:44:23,0.00,0.49,0.00,26.13,29.80,32.64,14.31,47.80,1018.08,2027.61,3249.70,2932.22,3320.00,600.04,590.68,50.32,0000 0000 0000 0000 000000
2016-07-27 11:49:23,0.00,0.49,0.00,26.12,29.80,32.62,14.36,47.62,1018.08,2027.84,3249.86,2932.55,3320.00,600.10,590.81,50.37,0000 0000 0000 0000 000000
2016-07-27 11:54:25,-0.00,0.49,0.00,26.11,29.79,32.64,14.37,47.68,1018.08,2027.87,3249.94,2932.64,3320.00,600.10,590.79,50.42,0000 0000 0000 0000 000000
2016-07-27 11:59:26,-0.00,0.49,0.00,26.12,29.77,32.63,14.32,47.70,1018.09,2027.88,3249.89,2932.70,3320.00,599.82,590.51,50.47,0000 0000 0000 0000 000000
2016-07-27 12:04:27,0.01,0.49,0.00,26.10,29.77,32.65,14.36,47.65,1018.08,2027.92,3249.79,2932.66,3320.00,600.21,590.95,50.52,0000 0000 0000 0000 000000
2016-07-27 12:09:29,-0.00,0.49,0.00,26.10,29.77,32.60,14.31,47.70,1018.08,2027.93,3249.92,2932.81,3320.00,599.82,590.52,50.57,0000 0000 0000 0000 000000
2016-07-27 12:14:30,0.00,0.49,0.00,26.09,29.77,32.60,14.34,47.63,1018.08,2027.95,3249.84,2932.84,3320.01,600.05,590.89,50.62,0000 0000 0000 0000 000000
2016-07-27 12:19:31,0.00,0.49,0.00,26.09,29.76,32.57,14.40,47.62,1018.09,2027.97,3249.90,2932.91,3320.00,600.04,590.73,50.67,0000 0000 0000 0000 000000
2016-07-27 12:24:32,0.00,0.49,0.00,26.07,29.75,32.54,14.32,47.62,1018.08,2027.97,3249.88,2932.84,3320.00,600.11,590.87,50.72,0000 0000 0000 0000 000000
2016-07-27 12:29:34,-0.00,0.49,0.00,26.07,29.75,32.60,14.46,47.72,1018.08,2027.98,3249.93,2932.95,3320.03,600.47,591.13,50.77,0000 0000 0000 0000 000000
2016-07-27 12:34:35,0.00,0.49,0.00,26.05,29.74,32.56,14.35,47.52,1018.09,2027.99,3249.94,2932.97,3320.08,599.75,590.56,50.82,0000 0000 0000 0000 000000
2016-07-27 12:39:36,0.00,0.49,0.00,26.05,29.72,32.52,14.35,47.64,1018.10,2027.99,3249.93,2932.98,3320.04,599.78,590.53,50.88,0000 0000 0000 0000 000000
2016-07-27 12:44:37,0.00,0.49,0.00,26.04,29.72,32.55,14.40,47.64,1018.09,2027.99,3249.85,2932.98,3320.05,600.36,591.19,50.93,0000 0000 0000 0000 000000
2016-07-27 12:49:39,-0.00,0.49,0.00,26.02,29.72,32.52,14.29,47.59,1018.09,2027.99,3249.91,2932.99,3320.05,599.81,590.71,50.98,0000 0000 0000 0000 000000
2016-07-27 12:54:40,0.00,0.49,0.00,26.03,29.70,32.55,14.30,47.60,1018.10,2027.99,3249.98,2932.99,3320.22,599.71,590.77,51.03,0000 0000 0000 0000 000000